Time,TemperatureF,DewpointF,PressureIn,WindDirection,WindDirectionDegrees,WindSpeedMPH,WindSpeedGustMPH,Humidity,HourlyPrecipIn,Conditions,Clouds,dailyrainin,SoftwareType,DateUTC
2013-07-28 00:10:00,65.8,65.2,29.67,South,180,0.0,-999.0,98,-99.99,,,0.00,Acu-Link.com,2013-07-28 04:10:00,
2013-07-28 00:26:00,65.3,64.7,29.68,SSW,202,0.0,-999.0,98,-99.99,,,0.00,Acu-Link.com,2013-07-28 04:26:00,
2013-07-28 00:41:00,65.7,65.1,29.68,SSW,202,0.0,-999.0,98,-99.99,,,0.00,Acu-Link.com,2013-07-28 04:41:00,
2013-07-28 00:56:00,65.8,65.2,29.67,NE,45,0.0,-999.0,98,-99.99,,,0.00,Acu-Link.com,2013-07-28 04:56:00,
2013-07-28 01:12:00,65.8,65.2,29.68,ESE,112,0.0,-999.0,98,-99.99,,,0.00,Acu-Link.com,2013-07-28 05:12:00,
2013-07-28 01:27:00,66.4,65.8,29.68,SSW,202,0.0,-999.0,98,-99.99,,,0.00,Acu-Link.com,2013-07-28 05:27:00,
2013-07-28 01:42:00,66.7,66.1,29.67,SSW,202,0.0,-999.0,98,-99.99,,,0.00,Acu-Link.com,2013-07-28 05:42:00,
2013-07-28 01:58:00,66.9,66.3,29.67,South,180,0.0,-999.0,98,-99.99,,,0.00,Acu-Link.com,2013-07-28 05:58:00,
2013-07-28 02:13:00,66.9,66.3,29.66,WSW,247,0.0,-999.0,98,-99.99,,,0.00,Acu-Link.com,2013-07-28 06:13:00,
2013-07-28 02:28:00,67.1,66.5,29.66,SW,225,0.0,-999.0,98,-99.99,,,0.01,Acu-Link.com,2013-07-28 06:28:00,
2013-07-28 02:43:00,67.1,66.5,29.67,SSE,157,0.0,-999.0,98,-99.99,,,0.01,Acu-Link.com,2013-07-28 06:43:00,
2013-07-28 02:58:00,67.1,66.5,29.68,South,180,0.0,-999.0,98,-99.99,,,0.01,Acu-Link.com,2013-07-28 06:58:00,
2013-07-28 03:14:00,67.1,66.5,29.67,SSE,157,1.7,-999.0,98,-99.99,,,0.01,Acu-Link.com,2013-07-28 07:14:00,
2013-07-28 03:29:00,66.9,66.3,29.67,SSW,202,0.0,-999.0,98,-99.99,,,0.01,Acu-Link.com,2013-07-28 07:29:00,
2013-07-28 03:44:00,66.6,66.0,29.67,SW,225,1.7,-999.0,98,-99.99,,,0.01,Acu-Link.com,2013-07-28 07:44:00,
2013-07-28 04:00:00,66.6,66.0,29.69,ENE,67,2.2,-999.0,98,-99.99,,,0.03,Acu-Link.com,2013-07-28 08:00:00,
2013-07-28 04:15:00,66.0,65.4,29.69,South,180,0.0,-999.0,98,-99.99,,,0.04,Acu-Link.com,2013-07-28 08:15:00,
2013-07-28 04:30:00,65.7,65.1,29.71,West,270,1.1,-999.0,98,-99.99,,,0.04,Acu-Link.com,2013-07-28 08:30:00,
2013-07-28 04:45:00,65.3,64.7,29.70,SSE,157,0.0,-999.0,98,-99.99,,,0.04,Acu-Link.com,2013-07-28 08:45:00,
2013-07-28 05:01:00,64.8,64.2,29.72,South,180,0.0,-999.0,98,-99.99,,,0.04,Acu-Link.com,2013-07-28 09:01:00,
2013-07-28 05:31:00,63.7,63.1,29.72,ESE,112,0.0,-999.0,98,-99.99,,,0.04,Acu-Link.com,2013-07-28 09:31:00,
2013-07-28 05:47:00,63.7,63.1,29.72,SSE,157,0.0,-999.0,98,-99.99,,,0.04,Acu-Link.com,2013-07-28 09:47:00,
2013-07-28 06:02:00,63.5,62.9,29.72,SW,225,0.0,-999.0,98,-99.99,,,0.04,Acu-Link.com,2013-07-28 10:02:00,
2013-07-28 06:17:00,63.0,62.4,29.73,SSE,157,0.0,-999.0,98,-99.99,,,0.04,Acu-Link.com,2013-07-28 10:17:00,
2013-07-28 06:33:00,63.0,62.4,29.73,NNE,22,0.0,-999.0,98,-99.99,,,0.04,Acu-Link.com,2013-07-28 10:33:00,
2013-07-28 06:48:00,63.1,62.5,29.75,South,180,0.0,-999.0,98,-99.99,,,0.04,Acu-Link.com,2013-07-28 10:48:00,
2013-07-28 07:03:00,63.7,63.1,29.74,West,270,0.0,-999.0,98,-99.99,,,0.04,Acu-Link.com,2013-07-28 11:03:00,
2013-07-28 07:18:00,63.9,63.3,29.75,West,270,0.0,-999.0,98,-99.99,,,0.04,Acu-Link.com,2013-07-28 11:18:00,
2013-07-28 07:33:00,63.9,63.3,29.76,SSW,202,0.0,-999.0,98,-99.99,,,0.04,Acu-Link.com,2013-07-28 11:33:00,
2013-07-28 07:48:00,63.9,63.3,29.76,West,270,0.0,-999.0,98,-99.99,,,0.04,Acu-Link.com,2013-07-28 11:48:00,
2013-07-28 08:04:00,64.0,63.4,29.76,WNW,292,0.0,-999.0,98,-99.99,,,0.04,Acu-Link.com,2013-07-28 12:04:00,
2013-07-28 08:19:00,64.2,63.6,29.76,South,180,0.0,-999.0,98,-99.99,,,0.04,Acu-Link.com,2013-07-28 12:19:00,
2013-07-28 08:34:00,64.2,63.6,29.76,West,270,1.7,-999.0,98,-99.99,,,0.04,Acu-Link.com,2013-07-28 12:34:00,
2013-07-28 08:50:00,64.6,64.0,29.77,West,270,0.0,-999.0,98,-99.99,,,0.04,Acu-Link.com,2013-07-28 12:50:00,
2013-07-28 09:05:00,65.7,65.1,29.77,East,90,1.1,-999.0,98,-99.99,,,0.04,Acu-Link.com,2013-07-28 13:05:00,
2013-07-28 09:20:00,66.4,65.2,29.78,West,270,0.0,-999.0,96,-99.99,,,0.04,Acu-Link.com,2013-07-28 13:20:00,
2013-07-28 09:36:00,66.6,64.5,29.78,ENE,67,0.0,-999.0,93,-99.99,,,0.04,Acu-Link.com,2013-07-28 13:36:00,
2013-07-28 09:51:00,66.2,62.9,29.77,SE,135,0.0,-999.0,89,-99.99,,,0.04,Acu-Link.com,2013-07-28 13:51:00,
2013-07-28 10:06:00,67.1,63.1,29.78,WNW,292,0.0,-999.0,87,-99.99,,,0.04,Acu-Link.com,2013-07-28 14:06:00,
2013-07-28 10:37:00,67.6,60.5,29.78,West,270,0.0,-999.0,78,-99.99,,,0.04,Acu-Link.com,2013-07-28 14:37:00,
2013-07-28 10:52:00,68.5,61.4,29.79,SW,225,1.1,-999.0,78,-99.99,,,0.04,Acu-Link.com,2013-07-28 14:52:00,
2013-07-28 11:08:00,69.3,61.8,29.78,South,180,0.0,-999.0,77,-99.99,,,0.04,Acu-Link.com,2013-07-28 15:08:00,
2013-07-28 11:23:00,68.5,61.0,29.80,SSW,202,1.7,-999.0,77,-99.99,,,0.04,Acu-Link.com,2013-07-28 15:23:00,
2013-07-28 11:38:00,70.0,62.1,29.79,ESE,112,0.0,-999.0,76,-99.99,,,0.04,Acu-Link.com,2013-07-28 15:38:00,
2013-07-28 11:53:00,71.2,62.9,29.77,SSW,202,2.7,-999.0,75,-99.99,,,0.04,Acu-Link.com,2013-07-28 15:53:00,
2013-07-28 12:08:00,72.5,62.5,29.79,WNW,292,3.2,-999.0,71,-99.99,,,0.04,Acu-Link.com,2013-07-28 16:08:00,
2013-07-28 12:23:00,73.0,62.2,29.79,West,270,2.2,-999.0,69,-99.99,,,0.04,Acu-Link.com,2013-07-28 16:23:00,
2013-07-28 12:39:00,73.2,63.6,29.78,SSW,202,1.7,-999.0,72,-99.99,,,0.04,Acu-Link.com,2013-07-28 16:39:00,
2013-07-28 12:54:00,72.0,61.3,29.80,SSW,202,0.0,-999.0,69,-99.99,,,0.04,Acu-Link.com,2013-07-28 16:54:00,
2013-07-28 13:09:00,73.0,62.6,29.78,WSW,247,0.0,-999.0,70,-99.99,,,0.04,Acu-Link.com,2013-07-28 17:09:00,
2013-07-28 13:25:00,72.3,61.5,29.80,SSW,202,2.7,-999.0,69,-99.99,,,0.04,Acu-Link.com,2013-07-28 17:25:00,
2013-07-28 13:40:00,74.5,63.2,29.79,SW,225,1.7,-999.0,68,-99.99,,,0.04,Acu-Link.com,2013-07-28 17:40:00,
2013-07-28 13:55:00,74.1,61.6,29.78,West,270,2.7,-999.0,65,-99.99,,,0.04,Acu-Link.com,2013-07-28 17:55:00,
2013-07-28 14:10:00,74.5,62.4,29.78,SW,225,3.2,-999.0,66,-99.99,,,0.04,Acu-Link.com,2013-07-28 18:10:00,
2013-07-28 14:26:00,73.0,61.0,29.80,SSE,157,2.2,-999.0,66,-99.99,,,0.04,Acu-Link.com,2013-07-28 18:26:00,
2013-07-28 14:56:00,74.5,61.9,29.78,South,180,2.2,-999.0,65,-99.99,,,0.04,Acu-Link.com,2013-07-28 18:56:00,
2013-07-28 15:12:00,74.8,61.3,29.79,WNW,292,3.7,-999.0,63,-99.99,,,0.04,Acu-Link.com,2013-07-28 19:12:00,
2013-07-28 15:27:00,73.8,60.8,29.79,SSW,202,3.7,-999.0,64,-99.99,,,0.04,Acu-Link.com,2013-07-28 19:27:00,
2013-07-28 15:42:00,74.5,61.1,29.80,West,270,2.7,-999.0,63,-99.99,,,0.04,Acu-Link.com,2013-07-28 19:42:00,
2013-07-28 15:57:00,74.5,61.1,29.79,WSW,247,1.7,-999.0,63,-99.99,,,0.04,Acu-Link.com,2013-07-28 19:57:00,
2013-07-28 16:13:00,73.9,61.8,29.79,SSE,157,3.7,-999.0,66,-99.99,,,0.04,Acu-Link.com,2013-07-28 20:13:00,
2013-07-28 16:28:00,73.6,61.5,29.79,SE,135,1.7,-999.0,66,-99.99,,,0.04,Acu-Link.com,2013-07-28 20:28:00,
2013-07-28 16:43:00,72.7,61.1,29.79,West,270,1.7,-999.0,67,-99.99,,,0.04,Acu-Link.com,2013-07-28 20:43:00,
2013-07-28 16:58:00,72.7,59.8,29.80,SW,225,1.7,-999.0,64,-99.99,,,0.04,Acu-Link.com,2013-07-28 20:58:00,
2013-07-28 17:14:00,72.9,60.0,29.82,West,270,2.7,-999.0,64,-99.99,,,0.04,Acu-Link.com,2013-07-28 21:14:00,
2013-07-28 17:29:00,73.9,59.1,29.81,NW,315,2.7,-999.0,60,-99.99,,,0.04,Acu-Link.com,2013-07-28 21:29:00,
2013-07-28 17:44:00,72.5,59.6,29.80,ENE,67,2.7,-999.0,64,-99.99,,,0.04,Acu-Link.com,2013-07-28 21:44:00,
2013-07-28 18:00:00,72.5,60.5,29.80,West,270,1.1,-999.0,66,-99.99,,,0.04,Acu-Link.com,2013-07-28 22:00:00,
2013-07-28 18:15:00,71.6,59.2,29.81,SW,225,2.7,-999.0,65,-99.99,,,0.04,Acu-Link.com,2013-07-28 22:15:00,
2013-07-28 18:30:00,70.2,58.7,29.81,SW,225,1.7,-999.0,67,-99.99,,,0.04,Acu-Link.com,2013-07-28 22:30:00,
2013-07-28 18:46:00,69.4,58.4,29.81,East,90,1.7,-999.0,68,-99.99,,,0.04,Acu-Link.com,2013-07-28 22:46:00,
2013-07-28 19:01:00,69.6,58.6,29.82,SSW,202,0.0,-999.0,68,-99.99,,,0.04,Acu-Link.com,2013-07-28 23:01:00,
2013-07-28 19:16:00,68.4,58.6,29.83,West,270,0.0,-999.0,71,-99.99,,,0.04,Acu-Link.com,2013-07-28 23:16:00,
2013-07-28 19:32:00,67.3,59.1,29.83,SSE,157,0.0,-999.0,75,-99.99,,,0.04,Acu-Link.com,2013-07-28 23:32:00,
2013-07-28 19:47:00,66.7,58.9,29.83,ESE,112,0.0,-999.0,76,-99.99,,,0.04,Acu-Link.com,2013-07-28 23:47:00,
2013-07-28 20:02:00,66.7,58.9,29.82,South,180,0.0,-999.0,76,-99.99,,,0.04,Acu-Link.com,2013-07-29 00:02:00,
2013-07-28 20:18:00,66.4,58.6,29.83,NE,45,0.0,-999.0,76,-99.99,,,0.04,Acu-Link.com,2013-07-29 00:18:00,
2013-07-28 20:33:00,66.2,58.8,29.82,ENE,67,1.7,-999.0,77,-99.99,,,0.04,Acu-Link.com,2013-07-29 00:33:00,
2013-07-28 20:48:00,65.7,58.6,29.83,ENE,67,0.0,-999.0,78,-99.99,,,0.04,Acu-Link.com,2013-07-29 00:48:00,
2013-07-28 21:03:00,65.3,58.3,29.83,ENE,67,0.0,-999.0,78,-99.99,,,0.04,Acu-Link.com,2013-07-29 01:03:00,
2013-07-28 21:19:00,64.8,58.8,29.83,East,90,0.0,-999.0,81,-99.99,,,0.04,Acu-Link.com,2013-07-29 01:19:00,
2013-07-28 21:34:00,64.2,59.3,29.84,East,90,0.0,-999.0,84,-99.99,,,0.04,Acu-Link.com,2013-07-29 01:34:00,
2013-07-28 21:49:00,64.2,59.3,29.86,West,270,2.7,-999.0,84,-99.99,,,0.04,Acu-Link.com,2013-07-29 01:49:00,
2013-07-28 22:04:00,63.7,58.4,29.86,South,180,0.0,-999.0,83,-99.99,,,0.04,Acu-Link.com,2013-07-29 02:04:00,
2013-07-28 22:20:00,63.1,57.5,29.86,SSW,202,2.2,-999.0,82,-99.99,,,0.04,Acu-Link.com,2013-07-29 02:20:00,
2013-07-28 22:35:00,62.8,57.2,29.87,SSE,157,1.7,-999.0,82,-99.99,,,0.04,Acu-Link.com,2013-07-29 02:35:00,
2013-07-28 22:50:00,62.8,57.6,29.87,SSE,157,2.2,-999.0,83,-99.99,,,0.04,Acu-Link.com,2013-07-29 02:50:00,
2013-07-28 23:05:00,62.2,57.6,29.86,ESE,112,0.0,-999.0,85,-99.99,,,0.04,Acu-Link.com,2013-07-29 03:05:00,
2013-07-28 23:36:00,61.5,58.5,29.87,SSE,157,0.0,-999.0,90,-99.99,,,0.04,Acu-Link.com,2013-07-29 03:36:00,